Tracking 23762 objects as of 20-Oct-2021
HD Live streaming from Space Station
objects crossing your sky now

SL-12 R/B(2)

Track SL-12 R/B(2) now!


NORAD ID: 14117
Int'l Code: 1982-009F
Perigee: 35,423.2 km
Apogee: 35,765.9 km
Inclination: 10.3 °
Period: 1,425.9 minutes
Semi major axis: 41965 km
RCS: 2.3838 m2 (large)
Launch date: February 5, 1982
Source: Commonwealth of Independent States (former USSR) (CIS)
Launch site: TYURATAM MISSILE AND SPACE COMPLEX (TTMTR)

Note: This is a ROCKET BODY
aabbcc
Your satellite tracking list
Your tracking list is empty




NASA's NSSDC Master Catalog

Two Line Element Set (TLE):
1 14117U 82009F   21292.53646567 -.00000369  00000-0  00000-0 0  9990
2 14117  10.3336 310.6975 0040836 153.5755 220.1037  1.00986460106258
Source of the keplerian elements: AFSPC